Weather History for Tehachapi, CA

Change the Weather History Date:

Friday, October 11, 2013

  Actual Average Record
Temperature  
Mean Temperature 50 °F -  
Max Temperature 66 °F 73 °F 66 °F (2013)
Min Temperature 35 °F 43 °F 35 °F (2013)
Degree Days  
Heating Degree Days 14    
Moisture  
Dew Point 34 °F    
Average Humidity 58    
Maximum Humidity 87    
Minimum Humidity 24    
Precipitation  
Precipitation 0.00 in - - ()
Sea Level Pressure  
Sea Level Pressure 30.07 in    
Wind  
Wind Speed 5 mph (NE)    
Max Wind Speed 17 mph    
Max Gust Speed 21 mph    
Visibility 9 miles    
Events      
Averages and records for this station are not official NWS values.
T = Trace of Precipitation, MM = Missing Value Source: NWS Daily Summary

Daily Weather History Graph

Daily Weather History Graph

Search for Another Location

Airport:

Trip Planner

Search our weather history database for the weather conditions in past years. The results will help you decide how hot, cold, wet, or windy it might be!

Date:

Astronomy

Oct. 11, 2013 Rise Set
Actual Time 6:56 AM PDT 6:23 PM PDT
Civil Twilight 6:31 AM PDT 6:48 PM PDT
Nautical Twilight 6:01 AM PDT 7:18 PM PDT
Astronomical Twilight 5:32 AM PDT 7:47 PM PDT
Moon 1:35 PM PDT (10/11) No Moon Set
Length of Visible Light 12h 17m
Length of Day
11h 26m
Waxing Crescent, 48% of the Moon is Illuminated
Oct 11
Waxing Crescent
Oct 11
First Quarter
Oct 18
Full
Oct 26
Last Quarter
Nov 3
New

Hourly Weather History & Observations

Time (PDT) Temp. Windchill Dew Point Humidity Pressure Visibility Wind Dir Wind Speed Gust Speed Precip Events Conditions
12:15 AM 44.6 °F 40.7 °F 33.8 °F 66% 30.05 in 10.0 mi NNW 6.9 mph - N/A   Clear
12:35 AM 44.6 °F 42.2 °F 33.8 °F 66% 30.05 in 10.0 mi North 4.6 mph - N/A   Clear
12:55 AM 44.6 °F 42.2 °F 33.8 °F 66% 30.05 in 10.0 mi North 4.6 mph - N/A   Clear
1:15 AM 44.6 °F 43.1 °F 33.8 °F 66% 30.06 in 10.0 mi North 3.5 mph - N/A   Clear
1:35 AM 44.6 °F 43.1 °F 33.8 °F 66% 30.06 in 10.0 mi North 3.5 mph - N/A   Clear
1:55 AM 44.6 °F 43.1 °F 33.8 °F 66% 30.06 in 10.0 mi NNW 3.5 mph - N/A   Clear
2:15 AM 44.6 °F 42.2 °F 33.8 °F 66% 30.06 in 10.0 mi NNW 4.6 mph - N/A   Clear
2:35 AM 44.6 °F 43.1 °F 33.8 °F 66% 30.06 in 10.0 mi NNW 3.5 mph - N/A   Clear
2:55 AM 44.6 °F 43.1 °F 33.8 °F 66% 30.06 in 10.0 mi NW 3.5 mph - N/A   Clear
3:15 AM 44.6 °F 42.2 °F 33.8 °F 66% 30.06 in 10.0 mi WNW 4.6 mph - N/A   Clear
3:35 AM 44.6 °F - 33.8 °F 66% 30.06 in 10.0 mi Calm Calm - N/A   Clear
3:55 AM 42.8 °F - 33.8 °F 70% 30.06 in 10.0 mi Calm Calm - N/A   Clear
4:15 AM 41.0 °F - 33.8 °F 76% 30.06 in 10.0 mi Calm Calm - N/A   Clear
4:35 AM 37.4 °F 34.9 °F 32.0 °F 81% 30.07 in 10.0 mi ESE 3.5 mph - N/A   Clear
4:55 AM 35.6 °F 32.8 °F 32.0 °F 87% 30.07 in 10.0 mi ESE 3.5 mph - N/A   Clear
5:15 AM 37.4 °F - 32.0 °F 81% 30.07 in 10.0 mi Calm Calm - N/A   Clear
5:35 AM 35.6 °F 32.8 °F 32.0 °F 87% 30.07 in 10.0 mi SE 3.5 mph - N/A   Clear
5:55 AM 35.6 °F 30.7 °F 32.0 °F 87% 30.07 in 10.0 mi SE 5.8 mph - N/A   Clear
6:15 AM 37.4 °F 34.9 °F 32.0 °F 81% 30.08 in 10.0 mi East 3.5 mph - N/A   Clear
6:35 AM 35.6 °F 32.8 °F 32.0 °F 87% 30.09 in 10.0 mi ESE 3.5 mph - N/A   Clear
6:55 AM 35.6 °F - 32.0 °F 87% 30.09 in 8.0 mi Calm Calm - N/A   Clear
7:15 AM 35.6 °F - 32.0 °F 87% 30.09 in 8.0 mi Calm Calm - N/A   Clear
7:35 AM 35.6 °F 29.9 °F 32.0 °F 87% 30.09 in 8.0 mi SE 6.9 mph - N/A   Clear
7:55 AM 37.4 °F 34.9 °F 33.8 °F 87% 30.10 in 9.0 mi East 3.5 mph - N/A   Clear
8:15 AM 41.0 °F - 35.6 °F 81% 30.10 in 8.0 mi Calm Calm - N/A   Clear
8:35 AM 42.8 °F - 35.6 °F 76% 30.10 in 8.0 mi Calm Calm - N/A   Clear
8:55 AM 46.4 °F - 37.4 °F 71% 30.11 in 9.0 mi Calm Calm - N/A   Clear
9:15 AM 48.2 °F - 37.4 °F 66% 30.11 in 9.0 mi ESE 3.5 mph - N/A   Clear
9:35 AM 51.8 °F - 35.6 °F 54% 30.11 in 10.0 mi Calm Calm - N/A   Clear
9:55 AM 53.6 °F - 32.0 °F 44% 30.11 in 10.0 mi Calm Calm - N/A   Clear
10:15 AM 55.4 °F - 32.0 °F 41% 30.11 in 10.0 mi Calm Calm - N/A   Clear
10:35 AM 55.4 °F - 32.0 °F 41% 30.10 in 9.0 mi SE 3.5 mph - N/A   Clear
10:55 AM 59.0 °F - 33.8 °F 39% 30.10 in 8.0 mi ESE 6.9 mph - N/A   Clear
11:15 AM 59.0 °F - 32.0 °F 36% 30.09 in 7.0 mi ESE 8.1 mph - N/A   Clear
11:35 AM 62.6 °F - 32.0 °F 32% 30.09 in 9.0 mi ESE 8.1 mph - N/A   Clear
11:55 AM 64.4 °F - 33.8 °F 32% 30.09 in 7.0 mi East 10.4 mph - N/A   Clear
12:15 PM 64.4 °F - 32.0 °F 30% 30.08 in 8.0 mi East 12.7 mph 16.1 mph N/A   Clear
12:35 PM 66.2 °F - 32.0 °F 28% 30.08 in 9.0 mi ESE 10.4 mph 16.1 mph N/A   Clear
12:55 PM 66.2 °F - 32.0 °F 28% 30.06 in 10.0 mi ESE 13.8 mph - N/A   Clear
1:15 PM 66.2 °F - 32.0 °F 28% 30.06 in 7.0 mi ESE 11.5 mph 16.1 mph N/A   Clear
1:35 PM 66.2 °F - 30.2 °F 26% 30.05 in 9.0 mi ESE 11.5 mph - N/A   Clear
1:55 PM 66.2 °F - 30.2 °F 26% 30.05 in 10.0 mi ESE 11.5 mph - N/A   Clear
2:15 PM 66.2 °F - 28.4 °F 24% 30.04 in 10.0 mi ESE 12.7 mph 16.1 mph N/A   Clear
2:35 PM 66.2 °F - 28.4 °F 24% 30.04 in 10.0 mi East 11.5 mph 17.3 mph N/A   Clear
2:55 PM 66.2 °F - 28.4 °F 24% 30.03 in 10.0 mi SE 5.8 mph 16.1 mph N/A   Clear
3:15 PM 66.2 °F - 35.6 °F 32% 30.03 in 9.0 mi NW 16.1 mph - N/A   Clear
3:35 PM 64.4 °F - 35.6 °F 34% 30.04 in 10.0 mi NW 15.0 mph 19.6 mph N/A   Clear
3:55 PM 62.6 °F - 35.6 °F 37% 30.04 in 9.0 mi NW 17.3 mph 20.7 mph N/A   Clear
4:15 PM 62.6 °F - 35.6 °F 37% 30.04 in 10.0 mi NW 15.0 mph - N/A   Clear
4:35 PM 62.6 °F - 35.6 °F 37% 30.05 in 9.0 mi NW 11.5 mph - N/A   Clear
4:55 PM 60.8 °F - 35.6 °F 39% 30.04 in 10.0 mi NW 10.4 mph - N/A   Clear
5:15 PM 59.0 °F - 35.6 °F 42% 30.05 in 10.0 mi NW 13.8 mph - N/A   Clear
5:35 PM 59.0 °F - 35.6 °F 42% 30.05 in 9.0 mi WNW 13.8 mph - N/A   Clear
5:55 PM 57.2 °F - 35.6 °F 44% 30.05 in 9.0 mi WNW 11.5 mph - N/A   Clear
6:15 PM 57.2 °F - 37.4 °F 48% 30.05 in 9.0 mi WNW 9.2 mph - N/A   Clear
6:35 PM 55.4 °F - 37.4 °F 51% 30.04 in 8.0 mi WNW 8.1 mph - N/A   Clear
6:55 PM 53.6 °F - 37.4 °F 54% 30.04 in 10.0 mi WNW 8.1 mph - N/A   Clear
7:15 PM 53.6 °F - 37.4 °F 54% 30.05 in 10.0 mi WNW 6.9 mph - N/A   Clear
7:35 PM 50.0 °F - 37.4 °F 62% 30.05 in 10.0 mi West 6.9 mph - N/A   Clear
7:55 PM 50.0 °F - 37.4 °F 62% 30.05 in 10.0 mi West 5.8 mph - N/A   Clear
8:15 PM 50.0 °F - 37.4 °F 62% 30.06 in 10.0 mi Calm Calm - N/A   Clear
8:35 PM 50.0 °F - 37.4 °F 62% 30.06 in 10.0 mi West 4.6 mph - N/A   Clear
8:55 PM 48.2 °F - 37.4 °F 66% 30.06 in 10.0 mi Calm Calm - N/A   Clear
9:15 PM 48.2 °F - 37.4 °F 66% 30.07 in 10.0 mi North 3.5 mph - N/A   Clear
9:35 PM 48.2 °F - 37.4 °F 66% 30.07 in 9.0 mi NNW 3.5 mph - N/A   Clear
9:55 PM 48.2 °F - 37.4 °F 66% 30.08 in 10.0 mi Calm Calm - N/A   Clear
10:15 PM 46.4 °F - 37.4 °F 71% 30.08 in 10.0 mi Calm Calm - N/A   Clear
10:35 PM 46.4 °F - 37.4 °F 71% 30.07 in 9.0 mi Calm Calm - N/A   Clear
10:55 PM 46.4 °F - 37.4 °F 71% 30.07 in 10.0 mi Calm Calm - N/A   Clear
11:15 PM 46.4 °F 44.3 °F 37.4 °F 71% 30.07 in 10.0 mi SE 4.6 mph - N/A   Clear
11:35 PM 41.0 °F 38.0 °F 37.4 °F 87% 30.07 in 9.0 mi SE 4.6 mph - N/A   Clear
11:55 PM 41.0 °F 37.1 °F 35.6 °F 81% 30.07 in 8.0 mi ESE 5.8 mph - N/A   Clear